STARLINK-1307, 45397

Orbit data source: Space-Track

STARLINK-1307, 45397 is a payload satellite owned by SpaceX/Seattle (US) in LEO that was launched on Wed, 18 Mar 2020 UTC via an FALCON 9 launch vehicle from the Air Force Eastern Test Range (AFETR). Payload-class satellites include a variety of spacecraft equipped with specific instruments for various scientific and technological missions. These include communications satellites like Starlink; space stations such as the ISS; scientific satellites like the Hubble; Earth observation satellites from companies like Planet Labs, Umbra, and HawkEye 360; GPS; miniature CubeSats for education and research; and military/defense satellites.

Loading next visibility...
Identifier
45397, 2020-019AP
Orbit
LEO
Country
Flag of USUS
Related business
Manufacturer
SpaceX/Seattle
Mission
Operational Commercial Communications
Bus & Motor
STARLINK, Unknown motor
Mass
260 kg wet, ~248 kg dry
Launch date (UTC)
2020-03-18 (6 years ago)
Launch vehicle
FALCON 9
Launch site
Air Force Eastern Test Range (AFETR)
Object type
Payload
Rocket body
Debris
Shape & HBR
Box + 1 Pan, 10.1 m
Radar Cross Section
13.562 m², Large (>1 m²)

Expand to show TLE details & history
Last TLE update: 18 hours ago

TLE from 18 hours ago
0 STARLINK-1307
1 45397U 20019AP  25298.56734235  .00000956  00000-0  83072-4 0  9995
2 45397  53.0555  33.2052 0001397  99.5255 260.5892 15.06408716309465
Epoch: 2025-10-25T13:36Z
TLE epoch observation values (Epoch: 2025-10-25T13:36:58.379Z)
Latitude
0.00001°
Longitude
154.76592°
Altitude
548.222 km
Speed
7.589 km/s
True Right ascension
02h 12m 49s
True Declination
0° 00' 00"
Sunlit
Object was in full shadow at epoch
Visualization orbit readout
Latitude
Unknown
Longitude
Unknown
Altitude
Unknown
Speed
Unknown
Apparent Right ascension
Unknown
Apparent Declination
Unknown
Sunlit
N/A
Visualization observer readout
Local Sidereal Time
03:09:25
Azimuth
Unknown
Elevation
Unknown
Doppler factor
Unknown
Orbital elements
Apogee altitude
548.423 km
Perigee altitude
546.488 km
Semi-major axis
6,925.592 km
Eccentricity
0.00014
Inclination
53.0555°
RAAN
33.2052°
Arg. of periapsis
99.5255°
True anomaly
260.57341°
Mean anomaly
260.5892°
Eccentric anomaly
260.5813°
Mean motion
3.7658 °/min
Orbital period
95.6 mins
BSTAR
0.000083072
Loading maneuver chart data...
Computing Atmospheric mass density...

Documentation

Showing up to 5 results
|